Time,TemperatureF,DewpointF,PressureIn,WindDirection,WindDirectionDegrees,WindSpeedMPH,WindSpeedGustMPH,Humidity,HourlyPrecipIn,Conditions,Clouds,dailyrainin,SoftwareType,DateUTC
2016-08-25 00:04:00,78.0,74.0,30.04,East,88,6.0,15.0,88,-99.99,,,-99.99,,2016-08-25 04:04:00,
2016-08-25 00:14:00,78.0,74.0,30.02,ENE,60,9.0,15.0,87,-99.99,,,-99.99,,2016-08-25 04:14:00,
2016-08-25 00:23:00,78.0,74.0,30.02,ENE,60,9.0,-999.0,87,-99.99,,,-99.99,,2016-08-25 04:23:00,
2016-08-25 00:44:00,79.0,73.0,30.00,ENE,71,6.0,11.0,81,-99.99,,,-99.99,,2016-08-25 04:44:00,
2016-08-25 01:07:00,80.0,75.0,29.99,ENE,77,7.0,13.0,83,-99.99,,,-99.99,,2016-08-25 05:07:00,
2016-08-25 01:17:00,80.0,75.0,29.99,ENE,75,6.0,11.0,86,-99.99,,,-99.99,,2016-08-25 05:17:00,
2016-08-25 01:28:00,80.0,75.0,29.99,ENE,75,6.0,11.0,86,-99.99,,,-99.99,,2016-08-25 05:28:00,
2016-08-25 01:36:00,80.0,75.0,29.99,ENE,75,6.0,11.0,86,-99.99,,,-99.99,,2016-08-25 05:36:00,
2016-08-25 01:48:00,80.0,75.0,29.98,NE,56,10.0,18.0,84,-99.99,,,-99.99,,2016-08-25 05:48:00,
2016-08-25 01:59:00,80.0,75.0,29.98,NE,56,10.0,18.0,84,-99.99,,,-99.99,,2016-08-25 05:59:00,
2016-08-25 02:08:00,80.0,75.0,29.98,ENE,61,9.0,15.0,84,-99.99,,,-99.99,,2016-08-25 06:08:00,
2016-08-25 02:15:00,81.0,75.0,29.98,ENE,70,8.0,-999.0,83,-99.99,,,-99.99,,2016-08-25 06:15:00,
2016-08-25 02:25:00,81.0,75.0,29.98,ENE,70,8.0,14.0,83,-99.99,,,-99.99,,2016-08-25 06:25:00,
2016-08-25 02:35:00,81.0,75.0,29.98,ENE,70,8.0,14.0,83,-99.99,,,-99.99,,2016-08-25 06:35:00,
2016-08-25 02:46:00,80.0,76.0,29.97,ENE,69,5.0,10.0,85,-99.99,,,-99.99,,2016-08-25 06:46:00,
2016-08-25 03:01:00,80.0,76.0,29.97,ENE,69,5.0,10.0,85,-99.99,,,-99.99,,2016-08-25 07:01:00,
2016-08-25 03:16:00,81.0,74.0,29.97,ENE,68,6.0,11.0,79,-99.99,,,-99.99,,2016-08-25 07:16:00,
2016-08-25 03:25:00,81.0,74.0,29.97,ENE,68,6.0,11.0,79,-99.99,,,-99.99,,2016-08-25 07:25:00,
2016-08-25 03:36:00,81.0,74.0,29.97,ENE,68,6.0,11.0,79,-99.99,,,-99.99,,2016-08-25 07:36:00,
2016-08-25 03:45:00,81.0,75.0,29.96,ENE,68,6.0,12.0,79,-99.99,,,-99.99,,2016-08-25 07:45:00,
2016-08-25 03:58:00,81.0,75.0,29.97,ENE,78,5.0,11.0,79,-99.99,,,-99.99,,2016-08-25 07:58:00,
2016-08-25 04:13:00,81.0,74.0,29.96,East,81,6.0,12.0,78,-99.99,,,-99.99,,2016-08-25 08:13:00,
2016-08-25 04:46:00,81.0,74.0,29.95,East,79,6.0,12.0,77,-99.99,,,-99.99,,2016-08-25 08:46:00,
2016-08-25 04:54:00,81.0,74.0,29.95,East,79,6.0,12.0,77,-99.99,,,-99.99,,2016-08-25 08:54:00,
2016-08-25 05:03:00,81.0,74.0,29.95,East,87,5.0,10.0,78,-99.99,,,-99.99,,2016-08-25 09:03:00,
2016-08-25 05:13:00,81.0,76.0,29.95,East,98,5.0,10.0,83,-99.99,,,-99.99,,2016-08-25 09:13:00,
2016-08-25 05:23:00,81.0,76.0,29.95,East,98,5.0,10.0,83,-99.99,,,-99.99,,2016-08-25 09:23:00,
2016-08-25 05:34:00,81.0,76.0,29.95,East,98,5.0,10.0,83,-99.99,,,-99.99,,2016-08-25 09:34:00,
2016-08-25 05:44:00,80.0,76.0,29.95,East,85,4.0,7.0,84,-99.99,,,-99.99,,2016-08-25 09:44:00,
2016-08-25 05:54:00,80.0,76.0,29.95,East,85,4.0,7.0,84,-99.99,,,-99.99,,2016-08-25 09:54:00,
2016-08-25 06:05:00,81.0,76.0,29.95,East,93,4.0,-999.0,84,-99.99,,,-99.99,,2016-08-25 10:05:00,
2016-08-25 06:14:00,80.0,75.0,29.95,East,79,4.0,8.0,84,-99.99,,,-99.99,,2016-08-25 10:14:00,
2016-08-25 06:24:00,80.0,75.0,29.95,East,79,4.0,8.0,84,-99.99,,,-99.99,,2016-08-25 10:24:00,
2016-08-25 06:34:00,80.0,75.0,29.95,East,79,4.0,8.0,84,-99.99,,,-99.99,,2016-08-25 10:34:00,
2016-08-25 06:48:00,81.0,75.0,29.96,ESE,103,3.0,7.0,83,-99.99,,,-99.99,,2016-08-25 10:48:00,
2016-08-25 06:59:00,81.0,75.0,29.96,ESE,103,3.0,7.0,83,-99.99,,,-99.99,,2016-08-25 10:59:00,
2016-08-25 07:08:00,81.0,75.0,29.96,ESE,113,4.0,7.0,83,-99.99,,,-99.99,,2016-08-25 11:08:00,
2016-08-25 07:19:00,81.0,75.0,29.96,East,100,4.0,8.0,83,-99.99,,,-99.99,,2016-08-25 11:19:00,
2016-08-25 07:25:00,81.0,75.0,29.96,East,100,4.0,8.0,83,-99.99,,,-99.99,,2016-08-25 11:25:00,
2016-08-25 07:36:00,81.0,75.0,29.96,East,100,4.0,8.0,83,-99.99,,,-99.99,,2016-08-25 11:36:00,
2016-08-25 07:57:00,80.0,75.0,29.96,ENE,78,4.0,8.0,85,-99.99,,,-99.99,,2016-08-25 11:57:00,
2016-08-25 08:06:00,80.0,75.0,29.96,East,90,4.0,6.0,85,-99.99,,,-99.99,,2016-08-25 12:06:00,
2016-08-25 08:15:00,80.0,75.0,29.97,East,91,4.0,6.0,84,-99.99,,,-99.99,,2016-08-25 12:15:00,
2016-08-25 08:25:00,80.0,75.0,29.97,East,91,4.0,6.0,84,-99.99,,,-99.99,,2016-08-25 12:25:00,
2016-08-25 08:46:00,81.0,76.0,29.97,ENE,73,3.0,6.0,82,-99.99,,,-99.99,,2016-08-25 12:46:00,
2016-08-25 08:57:00,81.0,76.0,29.97,ENE,73,3.0,6.0,82,-99.99,,,-99.99,,2016-08-25 12:57:00,
2016-08-25 09:06:00,83.0,76.0,29.97,ENE,68,4.0,8.0,78,-99.99,,,-99.99,,2016-08-25 13:06:00,
2016-08-25 09:16:00,84.0,76.0,29.97,ENE,72,4.0,9.0,76,-99.99,,,-99.99,,2016-08-25 13:16:00,
2016-08-25 09:25:00,84.0,76.0,29.97,ENE,72,4.0,9.0,76,-99.99,,,-99.99,,2016-08-25 13:25:00,
2016-08-25 09:36:00,84.0,76.0,29.97,ENE,72,4.0,9.0,76,-99.99,,,-99.99,,2016-08-25 13:36:00,
2016-08-25 09:45:00,84.0,76.0,29.98,ENE,61,5.0,9.0,77,-99.99,,,-99.99,,2016-08-25 13:45:00,
2016-08-25 09:57:00,84.0,76.0,29.98,ENE,61,5.0,9.0,77,-99.99,,,-99.99,,2016-08-25 13:57:00,
2016-08-25 10:04:00,83.0,76.0,29.98,East,93,6.0,10.0,78,-99.99,,,-99.99,,2016-08-25 14:04:00,
2016-08-25 10:14:00,80.0,75.0,29.98,SE,143,6.0,11.0,83,-99.99,,,-99.99,,2016-08-25 14:14:00,
2016-08-25 10:24:00,80.0,75.0,29.98,SE,143,6.0,11.0,83,-99.99,,,-99.99,,2016-08-25 14:24:00,
2016-08-25 10:34:00,80.0,75.0,29.98,SE,143,6.0,11.0,83,-99.99,,,-99.99,,2016-08-25 14:34:00,
2016-08-25 10:44:00,79.0,75.0,29.99,SE,133,4.0,10.0,86,-99.99,,,-99.99,,2016-08-25 14:44:00,
2016-08-25 10:54:00,79.0,75.0,29.99,SE,133,4.0,10.0,86,-99.99,,,-99.99,,2016-08-25 14:54:00,
2016-08-25 11:04:00,80.0,76.0,29.99,SE,135,2.0,4.0,87,-99.99,,,-99.99,,2016-08-25 15:04:00,
2016-08-25 11:13:00,80.0,76.0,29.99,ESE,115,3.0,12.0,87,-99.99,,,-99.99,,2016-08-25 15:13:00,
2016-08-25 11:24:00,80.0,76.0,29.99,ESE,115,3.0,12.0,87,-99.99,,,-99.99,,2016-08-25 15:24:00,
2016-08-25 11:34:00,80.0,76.0,29.99,ESE,115,3.0,-999.0,87,-99.99,,,-99.99,,2016-08-25 15:34:00,
2016-08-25 11:44:00,80.0,77.0,30.00,SW,221,2.0,4.0,90,-99.99,,,-99.99,,2016-08-25 15:44:00,
2016-08-25 12:05:00,82.0,77.0,30.00,WSW,247,2.0,4.0,86,-99.99,,,-99.99,,2016-08-25 16:05:00,
2016-08-25 12:23:00,82.0,77.0,30.00,SSW,193,2.0,-999.0,84,-99.99,,,-99.99,,2016-08-25 16:23:00,
2016-08-25 12:35:00,82.0,77.0,30.00,SSW,193,2.0,14.0,84,-99.99,,,-99.99,,2016-08-25 16:35:00,
2016-08-25 13:06:00,82.0,77.0,29.98,East,81,4.0,8.0,84,-99.99,,,-99.99,,2016-08-25 17:06:00,
2016-08-25 13:16:00,83.0,77.0,29.98,ENE,74,4.0,8.0,82,-99.99,,,-99.99,,2016-08-25 17:16:00,
2016-08-25 13:26:00,83.0,77.0,29.98,ENE,74,4.0,8.0,82,-99.99,,,-99.99,,2016-08-25 17:26:00,
2016-08-25 13:49:00,85.0,77.0,29.97,ENE,67,5.0,-999.0,77,-99.99,,,-99.99,,2016-08-25 17:49:00,
2016-08-25 13:59:00,85.0,77.0,29.97,ENE,67,5.0,10.0,77,-99.99,,,-99.99,,2016-08-25 17:59:00,
2016-08-25 14:07:00,86.0,78.0,29.97,ENE,62,5.0,-999.0,78,-99.99,,,-99.99,,2016-08-25 18:07:00,
2016-08-25 14:26:00,85.0,78.0,29.98,NE,53,6.0,10.0,78,-99.99,,,-99.99,,2016-08-25 18:26:00,
2016-08-25 14:46:00,84.0,77.0,29.97,ENE,67,7.0,12.0,77,-99.99,,,-99.99,,2016-08-25 18:46:00,
2016-08-25 14:57:00,84.0,77.0,29.97,ENE,67,7.0,12.0,77,-99.99,,,-99.99,,2016-08-25 18:57:00,
2016-08-25 15:06:00,85.0,78.0,29.96,ENE,57,5.0,11.0,77,-99.99,,,-99.99,,2016-08-25 19:06:00,
2016-08-25 15:15:00,85.0,78.0,29.96,ENE,59,7.0,14.0,77,-99.99,,,-99.99,,2016-08-25 19:15:00,
2016-08-25 15:25:00,85.0,78.0,29.96,ENE,59,7.0,14.0,77,-99.99,,,-99.99,,2016-08-25 19:25:00,
2016-08-25 15:35:00,85.0,78.0,29.96,ENE,59,7.0,14.0,77,-99.99,,,-99.99,,2016-08-25 19:35:00,
2016-08-25 15:46:00,82.0,76.0,29.94,NE,53,10.0,16.0,81,-99.99,,,-99.99,,2016-08-25 19:46:00,
2016-08-25 16:04:00,82.0,75.0,29.94,East,84,10.0,17.0,80,-99.99,,,-99.99,,2016-08-25 20:04:00,
2016-08-25 16:14:00,82.0,76.0,29.94,NE,55,9.0,14.0,80,-99.99,,,-99.99,,2016-08-25 20:14:00,
2016-08-25 16:23:00,82.0,76.0,29.94,NE,55,9.0,-999.0,80,-99.99,,,-99.99,,2016-08-25 20:23:00,
2016-08-25 16:34:00,82.0,76.0,29.94,NE,55,9.0,14.0,80,-99.99,,,-99.99,,2016-08-25 20:34:00,
2016-08-25 16:46:00,82.0,76.0,29.94,ENE,58,7.0,-999.0,81,-99.99,,,-99.99,,2016-08-25 20:46:00,
2016-08-25 17:13:00,79.0,76.0,29.94,ENE,71,6.0,11.0,89,-99.99,,,-99.99,,2016-08-25 21:13:00,
2016-08-25 17:24:00,79.0,76.0,29.94,ENE,71,6.0,11.0,89,-99.99,,,-99.99,,2016-08-25 21:24:00,
2016-08-25 17:35:00,79.0,76.0,29.94,ENE,71,6.0,11.0,89,-99.99,,,-99.99,,2016-08-25 21:35:00,
2016-08-25 17:44:00,79.0,76.0,29.94,ENE,62,7.0,13.0,90,-99.99,,,-99.99,,2016-08-25 21:44:00,
2016-08-25 18:05:00,79.0,75.0,29.94,ENE,58,-999.9,-999.0,89,-99.99,,,-99.99,,2016-08-25 22:05:00,